Home   Weather   Bryne   Past weeks

Flag for Norway Past Weather in Bryne, Norway — Yesterday and Last 2 Weeks

Now
26 °F

Clear.


Feels Like: 26 °F
Forecast: 45 / 47 °F
Wind: 2 mph from South

Location: Stavanger / Sola

Current Time: Dec 3, 2016 at 8:02:49 am

Latest Report: Dec 3, 2016 at 7:00 am


Visibility: 19 mi

Pressure: 30.28 "Hg

Humidity: 91%

Dew Point: 24 °F

Location of BryneLocation

Past Weather in Bryne — Graph

°F

Bryne Temperature Yesterday

Maximum temperature yesterday: 39 °F (at 2:00 pm)
Minimum temperature yesterday: 27 °F (at 11:00 pm)
Average temperature yesterday: 35 °F

High & Low Weather Summary for the Past Weeks

 TemperatureHumidityPressure
High51 °F (Nov 22, 3:00 pm)98% (Nov 26, 3:00 am)30.53 "Hg (Nov 26, 3:00 am)
Low25 °F (Dec 3, 4:00 am)64% (Nov 27, 2:00 pm)28.85 "Hg (Nov 18, 7:00 am)
Average40 °F84%29.91 "Hg
* Reported Nov 18 7:00 am — Dec 3 7:00 am, Bryne, Weather by CustomWeather, © 2016

Note: Actual official high and low records may vary slightly from our data, if they occured in-between our weather recording intervals... More about our weather records

Advertising

Bryne Weather History for the Previous 24 Hours

Scroll right to see more
 ConditionsComfort  
Time TempWeatherWind HumidityBarometerVisibility
7:00 am
Sat, Dec 3
26 °FClear.2 mph91%30.28 "Hg19 mi
6:00 am27 °FOvercast.No wind93%30.28 "Hg12 mi
5:00 am26 °FPassing clouds.No wind95%30.28 "Hg15 mi
4:00 am25 °FPassing clouds.2 mph95%30.28 "Hg14 mi
3:00 am26 °FOvercast.1 mph96%30.29 "Hg8 mi
2:00 am26 °FClear.No wind96%30.29 "Hg6 mi
1:00 am25 °FClear.1 mph95%30.29 "Hg5 mi
12:00 am27 °FClear.1 mph96%30.29 "Hg6 mi
11:00 pm
Fri, Dec 2
27 °FClear.No wind95%30.29 "Hg5 mi
10:00 pm28 °FClear.1 mph93%30.29 "Hg8 mi
9:00 pm29 °FClear.No wind91%30.29 "Hg10 mi
7:00 pm36 °FClear.2 mph75%30.28 "Hg22 mi
6:00 pm35 °FClear.3 mph82%30.27 "Hg22 mi
4:00 pm35 °FClear.2 mph76%30.26 "Hg22 mi
3:00 pm37 °FSunny.3 mph74%30.25 "Hg22 mi
2:00 pm39 °FSunny.5 mph72%30.24 "Hg18 mi
1:00 pm38 °FSunny.5 mph77%30.24 "Hg19 mi
12:00 pm37 °FSunny.1 mph81%30.24 "Hg22 mi
11:00 am36 °FSunny.1 mph82%30.23 "Hg25 mi
10:00 am35 °FChilly.5 mph85%30.21 "HgN/A
9:00 am33 °FClear.2 mph89%30.19 "Hg28 mi
8:00 am33 °FClear.1 mph86%30.17 "Hg31 mi
Weather by CustomWeather, © 2016

See weather overviewHow to use our weather pages